sat.trackr.live / text

‹ back to catalog

STARLINK-5020

NORAD 55458 · 2023-015K

PAYLOAD ACTIVE UNKNOWN

§ Identity

Operator
Country
US
Launch date
2023-02-02
Launch site
AFETR
Launch vehicle
Mass (kg)
RCS (m²)

Purposes: comms

External: N2YO · Heavens-Above · Gunter

§ Orbital elements

Epoch: 2026-09-20T10:23:31.956864Z

Period
94.27 min
Inclination
43.0027°
Eccentricity
0.0001053
Mean motion
15.27573403 rev/d
Perigee alt
482.3 km
Apogee alt
483.8 km
Semi-major
6,861.2 km
B*
-5.8028e-6
RAAN
309.0737°
Arg perigee
275.0696°
Mean anomaly
85.0035°
Rev number
20,050

§ Raw data

STARLINK-50201 55458U 23015K   26263.43300876 -.00000422  00000+0 -58028-5 0  99952 55458  43.0027 309.0737 0001053 275.0696  85.0035 15.27573403200503

JSON: /api/v1/satellites/55458 · /tle

For live sub-satellite position, see the globe view (requires WebGL).

§ Visibility from observer

Set your observer location to see the next 7 days of passes ≥ 10°. The values pass through the URL so the page stays shareable.

No JS? Fill the form by hand. The geolocation button needs JavaScript.